This is the latest recevied weather packets stored in our database for station/object SP1BMW-13. If no packets are shown the sender has not sent any weather packets the latest 10 day(s).
| Time | Temp. | Humidity | Pressure | Rain* | Wind** | Luminosity | Snow |
|---|---|---|---|---|---|---|---|
| 1787437563 | 13.33° C | 86% | 1014.1 hPa | 0 mm | 0.89 m/s, 215° | 0 W/m² | - |
| 1787437503 | 13.33° C | 86% | 1014.2 hPa | 0 mm | 0.89 m/s, 195° | 0 W/m² | - |
| 1787437443 | 13.33° C | 86% | 1014.2 hPa | 0 mm | 1.34 m/s, 200° | 0 W/m² | - |
| 1787437383 | 13.33° C | 85% | 1014.3 hPa | 0 mm | 0.45 m/s, 288° | 0 W/m² | - |
| 1787437323 | 13.33° C | 85% | 1014.2 hPa | 0 mm | 0.45 m/s, 267° | 0 W/m² | - |
| 1787437263 | 13.33° C | 85% | 1014.1 hPa | 0 mm | 0.45 m/s, 280° | 0 W/m² | - |
| 1787437203 | 13.33° C | 85% | 1014.2 hPa | 0 mm | 0.45 m/s, 287° | 0 W/m² | - |
| 1787437143 | 13.33° C | 85% | 1014.1 hPa | 0 mm | 0.89 m/s, 311° | 0 W/m² | - |
| 1787437083 | 13.33° C | 85% | 1014.2 hPa | 0 mm | 0 m/s | 0 W/m² | - |
| 1787437023 | 13.33° C | 85% | 1014.1 hPa | 0 mm | 0.45 m/s, 283° | 0 W/m² | - |
| 1787436963 | 13.33° C | 85% | 1014 hPa | 0 mm | 0.45 m/s, 268° | 0 W/m² | - |
| 1787436903 | 13.33° C | 85% | 1014.2 hPa | 0 mm | 0.45 m/s, 306° | 0 W/m² | - |
| 1787436843 | 13.33° C | 85% | 1014.2 hPa | 0 mm | 0.89 m/s, 277° | 0 W/m² | - |
| 1787436783 | 13.33° C | 85% | 1014.1 hPa | 0 mm | 0.89 m/s, 239° | 0 W/m² | - |
| 1787436723 | 13.33° C | 85% | 1014.1 hPa | 0 mm | 0.45 m/s, 251° | 0 W/m² | - |
| 1787436663 | 13.33° C | 85% | 1014.2 hPa | 0 mm | 0.89 m/s, 303° | 0 W/m² | - |
| 1787436603 | 13.33° C | 85% | 1014.1 hPa | 0 mm | 0.89 m/s, 310° | 0 W/m² | - |
| 1787436542 | 13.33° C | 85% | 1014.1 hPa | 0 mm | 1.34 m/s, 261° | 0 W/m² | - |
| 1787436483 | 13.33° C | 85% | 1014.1 hPa | 0 mm | 0.89 m/s, 221° | 0 W/m² | - |
| 1787436423 | 13.33° C | 86% | 1014 hPa | 0 mm | 0.89 m/s, 249° | 0 W/m² | - |
| 1787436363 | 13.33° C | 86% | 1014.1 hPa | 0 mm | 0.89 m/s, 305° | 0 W/m² | - |
| 1787436302 | 13.33° C | 86% | 1013.9 hPa | 0 mm | 0 m/s | 0 W/m² | - |
| 1787436243 | 12.78° C | 87% | 1014 hPa | 0 mm | 0.89 m/s, 294° | 0 W/m² | - |
| 1787436183 | 12.78° C | 87% | 1014.1 hPa | 0 mm | 0.45 m/s, 213° | 0 W/m² | - |
| 1787436123 | 12.78° C | 88% | 1014 hPa | 0 mm | 1.34 m/s, 237° | 0 W/m² | - |
* Rain latest hour (hover to see other rain measurements)
** Current wind speed in m/s (hover to see current wind gust speed)